Hoquiam, WA
on Monday, February 25, 2013

Monday
Previous Day Next Day
Daily Summary
 ActualAverageRecord
Temperature
Mean Temperature °F 44°F  
Max Temperature 48°F 51°F 67°F (1992)
Min Temperature 37°F 38°F 24°F (2011)
Degree Days
Heating Degree Days 22 21  
Month to date heating degree days 535  
Cooling Degree Days 0 0  
Month to date cooling degree days 0  
Year to date cooling degree days 0  
Moisture
Dew Point 38°F   
Average Humidity 81    
Maximum Humidity 93    
Minimum Humidity 58    
Precipitation
Precipitation 0.27 in 0.25 in 1.89 in (1957)
Month to date precipitation 6.49  
Year to date precipitation 16.82  
Wind
Wind Speed 16 mph   
Max Wind Speed 28 mph   
Max Gust Speed 47 mph   
Visibility 9 miles   
Events Rain   

Key: T is trace of precipitation, MM is missing value
Source: NWS Daily Summary
Time(PST)TemperatureDew PointHumidity Pressure Visibility Wind DirectionWind SpeedGust SpeedPrecipitationEvents Conditions
12:20 AM 44.6°F 42.8°F 93% 29.90 in 10.0 miles SSE 16.1 mph 20.7 mph 0.04 in Rain Light Rain
12:35 AM 44.6°F 41.0°F 87% 29.92 in 2.5 miles WSW 19.6 mph 28.8 mph 0.10 in Rain Light Rain
12:37 AM 44.6°F 42.8°F 93% 29.92 in 3.0 miles WSW 16.1 mph 24.2 mph 0.10 in Rain Light Rain
12:42 AM 44.6°F 42.8°F 93% 29.92 in 6.0 miles WSW 18.4 mph 24.2 mph 0.10 in Rain Light Rain
12:53 AM 45.0°F 42.1°F 90% 29.94 in 9.0 miles WSW 15.0 mph 23.0 mph 0.10 in Rain Light Rain
1:14 AM 44.6°F 39.2°F 81% 29.93 in 10.0 miles WSW 16.1 mph - 0.00 in   Overcast
1:53 AM 45.0°F 39.0°F 80% 29.96 in 10.0 miles WSW 15.0 mph 25.3 mph 0.00 in   Overcast
2:04 AM 44.6°F 39.2°F 81% 29.95 in 10.0 miles WSW 17.3 mph 24.2 mph 0.00 in Rain Light Rain
2:21 AM 44.6°F 39.2°F 81% 29.96 in 10.0 miles WSW 15.0 mph - 0.00 in   Overcast
2:53 AM 44.1°F 39.9°F 85% 29.97 in 10.0 miles SW 19.6 mph - 0.00 in   Overcast
3:12 AM 42.8°F 37.4°F 81% 29.97 in 6.0 miles WSW 15.0 mph 33.4 mph 0.01 in Rain Light Rain
3:22 AM 44.6°F 39.2°F 81% 29.97 in 10.0 miles WSW 15.0 mph - 0.02 in Rain Light Rain
3:53 AM 44.1°F 37.9°F 79% 29.99 in 10.0 miles WSW 19.6 mph 26.5 mph 0.02 in   Overcast
4:53 AM 42.1°F 37.9°F 85% 30.01 in 8.0 miles WSW 16.1 mph 27.6 mph 0.03 in Rain Light Rain
5:48 AM 39.2°F 35.6°F 87% 30.04 in 3.0 miles West 23.0 mph 47.2 mph 0.04 in Rain Rain
5:53 AM 39.9°F 37.0°F 89% 30.06 in 4.0 miles WSW 19.6 mph 40.3 mph 0.05 in Rain Light Rain
6:42 AM 42.8°F 37.4°F 81% 30.05 in 10.0 miles WSW 27.6 mph 35.7 mph 0.01 in Rain Light Rain
6:53 AM 42.1°F 37.0°F 82% 30.07 in 10.0 miles WSW 15.0 mph 28.8 mph 0.02 in Rain Light Rain
7:53 AM 45.0°F 37.0°F 74% 30.09 in 10.0 miles WSW 23.0 mph 29.9 mph 0.00 in   Overcast
8:53 AM 45.0°F 37.9°F 76% 30.12 in 10.0 miles WSW 19.6 mph 26.5 mph N/A   Overcast
9:53 AM 44.6°F 35.6°F 71% 30.14 in 10.0 miles West 20.7 mph 34.5 mph N/A   Overcast
10:53 AM 46.0°F 34.0°F 63% 30.17 in 10.0 miles West 18.4 mph 31.1 mph 0.00 in   Overcast
11:53 AM 48.0°F 34.0°F 58% 30.19 in 10.0 miles West 20.7 mph 31.1 mph N/A   Overcast
12:53 PM 43.0°F 36.0°F 76% 30.22 in 8.0 miles WSW 20.7 mph 36.8 mph 0.00 in Rain Light Rain
1:53 PM 45.0°F 34.0°F 65% 30.22 in 10.0 miles WSW 18.4 mph 29.9 mph 0.00 in   Mostly Cloudy
2:53 PM 46.9°F 37.0°F 68% 30.22 in 10.0 miles WSW 18.4 mph 27.6 mph N/A   Scattered Clouds
3:53 PM 46.0°F 37.0°F 71% 30.24 in 10.0 miles West 17.3 mph 24.2 mph 0.00 in   Partly Cloudy
4:53 PM 45.0°F 37.0°F 74% 30.26 in 10.0 miles West 18.4 mph - N/A   Clear
5:53 PM 43.0°F 35.1°F 74% 30.28 in 10.0 miles West 4.6 mph - 0.00 in   Partly Cloudy
6:53 PM 44.1°F 36.0°F 73% 30.30 in 9.0 miles West 20.7 mph 28.8 mph 0.00 in Rain Light Rain
7:15 PM 42.8°F 35.6°F 76% 30.29 in 10.0 miles WNW 5.8 mph - 0.04 in   Mostly Cloudy
7:26 PM 42.8°F 37.4°F 81% 30.30 in 10.0 miles West 4.6 mph - 0.04 in   Mostly Cloudy
7:53 PM 42.1°F 37.0°F 82% 30.31 in 10.0 miles Calm Calm - 0.04 in   Scattered Clouds
8:53 PM 39.0°F 37.0°F 93% 30.32 in 10.0 miles Calm Calm - N/A   Clear
9:53 PM 39.0°F 37.0°F 93% 30.33 in 10.0 miles Calm Calm - 0.01 in   Overcast
10:53 PM 39.0°F 37.0°F 93% 30.34 in 10.0 miles West 4.6 mph - N/A   Clear
11:53 PM 37.0°F 35.1°F 93% 30.34 in 9.0 miles ENE 3.5 mph - N/A   Partly Cloudy
Moon Phase
Feb. 25 Feb. 25 Mar. 04 Mar. 11 Mar. 19
Sunrise:07:02 AM (PST) Moon Rise:06:19 PM (PST)2/25
Sunset:05:55 PM (PST) Moon Set:06:32 AM (PST)2/25

Copyright © 2014 The Weather Underground, Inc.